This is the latest recevied weather packets stored in our database for station/object N1HRK. If no packets are shown the sender has not sent any weather packets the latest 10 day(s).
| Time | Temp. | Humidity | Pressure | Rain* | Wind** | Luminosity | Snow |
|---|---|---|---|---|---|---|---|
| 1777504580 | 11.67° C | 80% | 1011.7 hPa | 0 mm | - | - | - |
| 1777504154 | 11.67° C | 80% | 1011.6 hPa | 0 mm | - | - | - |
| 1777503980 | 11.67° C | 79% | 1011.5 hPa | 0 mm | - | - | - |
| 1777503552 | 11.67° C | 78% | 1011.5 hPa | 0 mm | - | - | - |
| 1777503378 | 12.22° C | 78% | 1011.5 hPa | 0 mm | - | - | - |
| 1777502953 | 12.22° C | 77% | 1011.5 hPa | 0 mm | - | - | - |
| 1777502780 | 12.22° C | 76% | 1011.6 hPa | 0 mm | - | - | - |
| 1777502354 | 12.78° C | 75% | 1011.7 hPa | 0 mm | - | - | - |
| 1777502180 | 12.78° C | 74% | 1011.7 hPa | 0 mm | - | - | - |
| 1777501752 | 12.78° C | 74% | 1011.8 hPa | 0 mm | - | - | - |
| 1777501580 | 12.22° C | 74% | 1011.8 hPa | 0 mm | - | - | - |
| 1777501153 | 12.78° C | 73% | 1012 hPa | 0 mm | - | - | - |
| 1777500979 | 13.33° C | 73% | 1012 hPa | 0 mm | - | - | - |
| 1777500553 | 12.78° C | 72% | 1011.7 hPa | 0 mm | - | - | - |
| 1777500380 | 13.33° C | 72% | 1011.6 hPa | 0 mm | - | - | - |
| 1777499953 | 13.89° C | 69% | 1011.4 hPa | 0 mm | - | - | - |
| 1777499780 | 14.44° C | 69% | 1011.4 hPa | 0 mm | - | - | - |
| 1777499353 | 14.44° C | 68% | 1011.7 hPa | 0 mm | - | - | - |
| 1777499180 | 14.44° C | 68% | 1011.8 hPa | 0 mm | - | - | - |
| 1777498754 | 14.44° C | 67% | 1011.9 hPa | 0 mm | - | - | - |
| 1777498579 | 15° C | 67% | 1012 hPa | 0 mm | - | - | - |
| 1777498153 | 15.56° C | 64% | 1012.1 hPa | 0 mm | - | - | - |
| 1777497979 | 15.56° C | 64% | 1012.1 hPa | 0 mm | - | - | - |
| 1777497553 | 16.11° C | 62% | 1012.2 hPa | 0 mm | - | - | - |
| 1777497380 | 16.67° C | 60% | 1012.1 hPa | 0 mm | - | - | - |
* Rain latest hour (hover to see other rain measurements)
** Current wind speed in m/s (hover to see current wind gust speed)